Terminal Aerodrome Forecast
Issued by NWS

Home | Current Version | Previous Version | Text Only | Print | Product List | Glossary On
Versions: 1 2 3 4 5 6 7 8 9 10 11 12 13 14 15 16
000
FTUS43 KIND 301700
TAFHUF
TAF
KHUF 301726Z 3018/3118 36008KT P6SM FEW035
     FM302000 34004KT P6SM SCT040
     FM310000 VRB02KT P6SM SCT250
     FM311700 21008KT P6SM SCT035=

USA.gov is the U.S. government's official web portal to all federal, state and local government web resources and services.